Weather History for KMYP - May, 2013

Change the Weather History Date:

Wednesday, May 15, 2013

  Actual Average (KGUC) Record (KGUC)
Temperature  
Mean Temperature 38 °F -  
Max Temperature 44 °F 62 °F 71 °F (2001)
Min Temperature 33 °F 30 °F 24 °F (1998)
Degree Days  
Heating Degree Days 26    
Moisture  
Dew Point 31 °F    
Average Humidity 73    
Maximum Humidity 100    
Minimum Humidity 53    
Precipitation  
Precipitation 0.00 in - - ()
Sea Level Pressure  
Sea Level Pressure 30.48 in    
Wind  
Wind Speed 8 mph (WNW)    
Max Wind Speed 22 mph    
Max Gust Speed 33 mph    
Averages and records for this station are not official NWS values.
T = Trace of Precipitation, MM = Missing Value Source: NWS Daily Summary

Daily Weather History Graph

Daily Weather History Graph

Search for Another Location

Airport or City:

Trip Planner

Search our weather history database for the weather conditions in past years. The results will help you decide how hot, cold, wet, or windy it might be!

Date:

Astronomy

May. 15, 2013 Rise Set
Actual Time 5:53 AM MDT 8:10 PM MDT
Civil Twilight 5:23 AM MDT 8:40 PM MDT
Nautical Twilight 4:47 AM MDT 9:16 PM MDT
Astronomical Twilight 4:06 AM MDT 9:57 PM MDT
Moon 10:31 AM MDT (5/15) No Moon Set
Length of Visible Light 15h 16m
Length of Day
14h 16m
Waxing Crescent, 27% of the Moon is Illuminated
May 15
Waxing Crescent
May 17
First Quarter
May 24
Full
May 31
Last Quarter
Jun 8
New

Hourly Weather History & Observations

Time (MDT) Temp. Windchill Dew Point Humidity Pressure Visibility Wind Dir Wind Speed Gust Speed Precip Events Conditions
12:12 AM 39.2 °F 35.9 °F 30.2 °F 70% 30.53 in - West 4.6 mph - N/A   Overcast
12:32 AM 37.4 °F 32.8 °F 32.0 °F 81% 30.53 in - West 5.8 mph - N/A   Overcast
12:52 AM 37.4 °F 30.8 °F 32.0 °F 81% 30.53 in - West 9.2 mph - N/A   Mostly Cloudy
1:12 AM 37.4 °F 30.8 °F 32.0 °F 81% 30.53 in - West 9.2 mph - N/A   Scattered Clouds
1:32 AM 37.4 °F 33.8 °F 32.0 °F 81% 30.52 in - NW 4.6 mph - N/A   Mostly Cloudy
1:52 AM 37.4 °F 33.8 °F 30.2 °F 75% 30.51 in - West 4.6 mph - N/A   Scattered Clouds
2:12 AM 37.4 °F 32.8 °F 30.2 °F 75% 30.51 in - WNW 5.8 mph - N/A   Clear
2:32 AM 35.6 °F 27.1 °F 32.0 °F 87% 30.50 in - West 12.7 mph - N/A   Clear
2:52 AM 35.6 °F 27.1 °F 32.0 °F 87% 30.49 in - West 12.7 mph - N/A   Clear
3:12 AM 37.4 °F 32.8 °F 32.0 °F 81% 30.49 in - West 5.8 mph - N/A   Scattered Clouds
3:32 AM 37.4 °F 30.8 °F 30.2 °F 75% 30.48 in - NW 9.2 mph - N/A   Mostly Cloudy
3:52 AM 39.2 °F 34.2 °F 28.4 °F 65% 30.48 in - NW 6.9 mph - N/A   Mostly Cloudy
4:12 AM 37.4 °F 32.1 °F 30.2 °F 75% 30.49 in - WNW 6.9 mph - N/A   Scattered Clouds
4:32 AM 39.2 °F 34.2 °F 30.2 °F 70% 30.49 in - NW 6.9 mph - N/A   Mostly Cloudy
4:52 AM 41.0 °F 35.2 °F 28.4 °F 61% 30.49 in - NW 9.2 mph - N/A   Overcast
5:12 AM 41.0 °F 35.8 °F 28.4 °F 61% 30.49 in - NW 8.1 mph - N/A   Mostly Cloudy
5:32 AM 41.0 °F 36.4 °F 28.4 °F 61% 30.49 in - WNW 6.9 mph - N/A   Overcast
5:52 AM 41.0 °F 37.1 °F 28.4 °F 61% 30.49 in - NNW 5.8 mph - N/A   Overcast
6:12 AM 41.0 °F 38.0 °F 28.4 °F 61% 30.49 in - NW 4.6 mph - N/A   Overcast
6:32 AM 41.0 °F 38.0 °F 28.4 °F 61% 30.49 in - WNW 4.6 mph - N/A   Scattered Clouds
6:52 AM 39.2 °F 34.2 °F 28.4 °F 65% 30.50 in - West 6.9 mph - N/A   Scattered Clouds
7:12 AM 41.0 °F 36.4 °F 28.4 °F 61% 30.50 in - WNW 6.9 mph - N/A   Mostly Cloudy
7:32 AM 41.0 °F 38.0 °F 28.4 °F 61% 30.50 in - West 4.6 mph - N/A   Overcast
7:52 AM 41.0 °F 36.4 °F 28.4 °F 61% 30.49 in - NW 6.9 mph - N/A   Overcast
8:12 AM 42.8 °F - 28.4 °F 57% 30.50 in - Calm Calm - N/A   Scattered Clouds
8:32 AM 42.8 °F - 32.0 °F 66% 30.51 in - Calm Calm - N/A   Scattered Clouds
8:52 AM 42.8 °F - 30.2 °F 61% 30.51 in - Calm Calm - N/A   Scattered Clouds
9:12 AM 42.8 °F 38.6 °F 32.0 °F 66% 30.51 in - SW 6.9 mph - N/A   Scattered Clouds
9:32 AM 42.8 °F 39.3 °F 32.0 °F 66% 30.51 in - SSW 5.8 mph - N/A   Mostly Cloudy
9:52 AM 44.6 °F 42.2 °F 32.0 °F 61% 30.51 in - WSW 4.6 mph - N/A   Unknown
10:12 AM 44.6 °F 40.7 °F 32.0 °F 61% 30.51 in - SW 6.9 mph - N/A   Scattered Clouds
10:32 AM 42.8 °F 35.8 °F 33.8 °F 70% 30.51 in - WSW 13.8 mph - N/A   Mostly Cloudy
10:52 AM 41.0 °F 33.9 °F 32.0 °F 70% 30.51 in - West 12.7 mph 19.6 mph N/A   Overcast
11:12 AM 39.2 °F 29.6 °F 30.2 °F 70% 30.51 in - West 19.6 mph - N/A Thunderstorm Thunderstorm
11:32 AM 39.2 °F 31.2 °F 30.2 °F 70% 30.52 in - WNW 13.8 mph - N/A Thunderstorm Thunderstorm
11:52 AM 39.2 °F 30.8 °F 30.2 °F 70% 30.51 in - West 15.0 mph 20.7 mph N/A   Overcast
12:12 PM 39.2 °F 33.0 °F 30.2 °F 70% 30.51 in - NW 9.2 mph - N/A   Overcast
12:32 PM 41.0 °F 34.7 °F 30.2 °F 65% 30.49 in - NW 10.4 mph - N/A Thunderstorm Thunderstorm
12:52 PM 42.8 °F 40.1 °F 28.4 °F 57% 30.49 in - North 4.6 mph - N/A   Overcast
1:12 PM 44.6 °F 43.1 °F 28.4 °F 53% 30.48 in - ENE 3.5 mph - N/A Thunderstorm Thunderstorm
1:32 PM 44.6 °F 37.8 °F 32.0 °F 61% 30.47 in - ENE 15.0 mph - N/A   Mostly Cloudy
1:52 PM 42.8 °F 34.5 °F 32.0 °F 66% 30.47 in - ENE 18.4 mph - N/A Thunderstorm Thunderstorm
2:12 PM 42.8 °F 35.8 °F 32.0 °F 66% 30.47 in - ENE 13.8 mph - N/A Thunderstorm Thunderstorm
2:32 PM 44.6 °F 38.8 °F 32.0 °F 61% 30.46 in - ENE 11.5 mph - N/A Thunderstorm Thunderstorm
2:52 PM 44.6 °F 37.4 °F 30.2 °F 57% 30.46 in - NE 16.1 mph - N/A Thunderstorm Thunderstorm
3:12 PM 44.6 °F 36.9 °F 30.2 °F 57% 30.45 in - ENE 18.4 mph - N/A   Mostly Cloudy
3:32 PM 42.8 °F 33.8 °F 32.0 °F 66% 30.44 in - ENE 21.9 mph - N/A Thunderstorm Thunderstorm
3:52 PM 42.8 °F 35.4 °F 32.0 °F 66% 30.45 in - ENE 15.0 mph - N/A Thunderstorm Thunderstorm
4:12 PM 41.0 °F 33.9 °F 30.2 °F 65% 30.45 in - East 12.7 mph 25.3 mph N/A   Overcast
4:32 PM 41.0 °F - 32.0 °F 70% 30.48 in - Calm Calm - N/A Thunderstorm Thunderstorm
4:52 PM 37.4 °F 28.9 °F 32.0 °F 81% 30.49 in - SSW 13.8 mph - N/A   Overcast
5:12 PM 35.6 °F 26.6 °F 33.8 °F 93% 30.46 in - SSE 13.8 mph - N/A   Unknown
5:32 PM 35.6 °F 28.6 °F 33.8 °F 93% 30.46 in - East 9.2 mph - N/A Thunderstorm Thunderstorm
5:52 PM 35.6 °F 29.9 °F 32.0 °F 87% 30.47 in - ENE 6.9 mph - N/A Thunderstorm Thunderstorm
6:12 PM 35.6 °F 29.9 °F 32.0 °F 87% 30.48 in - NNW 6.9 mph - N/A   Overcast
6:32 PM 33.8 °F 26.4 °F 32.0 °F 93% 30.47 in - NNE 9.2 mph - N/A Thunderstorm Thunderstorm
6:52 PM 33.8 °F 22.8 °F 32.0 °F 93% 30.44 in - ENE 18.4 mph - N/A Thunderstorm Thunderstorm
7:12 PM 33.8 °F 24.3 °F 32.0 °F 93% 30.44 in - ENE 13.8 mph - N/A Thunderstorm Thunderstorm
7:32 PM 33.8 °F 23.5 °F 32.0 °F 93% 30.44 in - ENE 16.1 mph - N/A   Unknown
7:52 PM 33.8 °F 23.9 °F 33.8 °F 100% 30.44 in - ENE 15.0 mph - N/A   Unknown
8:12 PM 33.8 °F 23.5 °F 32.0 °F 93% 30.43 in - ENE 16.1 mph - N/A   Unknown
8:32 PM 33.8 °F 25.8 °F 33.8 °F 100% 30.44 in - ENE 10.4 mph - N/A   Unknown
8:52 PM 35.6 °F - 33.8 °F 93% 30.45 in - Calm Calm - N/A   Unknown
9:12 PM 35.6 °F 26.6 °F 32.0 °F 87% 30.46 in - SW 13.8 mph - N/A Thunderstorm Thunderstorm
9:32 PM 39.2 °F 32.5 °F 30.2 °F 70% 30.45 in - WSW 10.4 mph 33.4 mph N/A   Overcast
9:52 PM 35.6 °F 28.0 °F 32.0 °F 87% 30.46 in - SSW 10.4 mph - N/A   Scattered Clouds
10:12 PM 37.4 °F 30.3 °F 32.0 °F 81% 30.46 in - SSW 10.4 mph - N/A   Clear
10:52 PM 37.4 °F 31.4 °F 32.0 °F 81% 30.45 in - South 8.1 mph - N/A   Clear
11:12 PM 37.4 °F 30.8 °F 32.0 °F 81% 30.45 in - SSW 9.2 mph - N/A   Clear
11:32 PM 37.4 °F 28.9 °F 30.2 °F 75% 30.44 in - SSW 13.8 mph - N/A   Clear
11:52 PM 35.6 °F 26.2 °F 30.2 °F 81% 30.44 in - SSW 15.0 mph - N/A   Clear